Tucson, AZ

9:14 AM MST on February 06, 2016 (GMT -0700)
Davis-Monthan Air Force Base

Weather History for KDMA - December, 2013

Change the Weather History Date:

Thursday, December 26, 2013

  Actual Average Record
Temperature  
Mean Temperature 54 °F -  
Max Temperature 64 °F 62 °F 78 °F (1955)
Min Temperature 45 °F 38 °F 25 °F (1987)
Degree Days  
Heating Degree Days 10    
Growing Degree Days 4 (Base 50)    
Moisture  
Dew Point 23 °F    
Average Humidity 31    
Maximum Humidity 43    
Minimum Humidity 19    
Precipitation  
Precipitation 0.00 in - - ()
Sea Level Pressure  
Sea Level Pressure 30.13 in    
Wind  
Wind Speed 7 mph (ESE)    
Max Wind Speed 14 mph    
Max Gust Speed -    
Visibility 10 miles    
Events      
Averages and records for this station are not official NWS values.
T = Trace of Precipitation, MM = Missing Value Source: NWS Daily Summary

Daily Weather History Graph

Daily Weather History Graph

Search for Another Location

Airport or City:

Trip Planner

Search our weather history database for the weather conditions in past years. The results will help you decide how hot, cold, wet, or windy it might be!

Date:

Astronomy

Dec. 26, 2013 Rise Set
Actual Time 7:22 AM MST 5:25 PM MST
Civil Twilight 6:55 AM MST 5:53 PM MST
Nautical Twilight 6:25 AM MST 6:23 PM MST
Astronomical Twilight 5:55 AM MST 6:53 PM MST
Moon 1:09 AM MST (12/26) 12:50 PM MST (12/26)
Length of Visible Light 10h 57m
Length of Day
10h 03m
Last Quarter, 38% of the Moon is Illuminated
Dec 26
Last Quarter
Jan 1
New
Jan 7
First Quarter
Jan 15
Full
Jan 23
Last Quarter

Hourly Weather History & Observations

Time (MST) Temp. Windchill Dew Point Humidity Pressure Visibility Wind Dir Wind Speed Gust Speed Precip Events Conditions
12:58 AM 48.9 °F - 24.8 °F 39% 30.15 in 10.0 mi SE 8.1 mph - N/A   Clear
1:58 AM 52.2 °F - 21.9 °F 31% 30.14 in 10.0 mi SSE 3.5 mph - N/A   Clear
2:58 AM 50.2 °F - 21.9 °F 33% 30.13 in 10.0 mi ESE 6.9 mph - N/A   Clear
3:58 AM 48.0 °F - 22.3 °F 36% 30.14 in 10.0 mi SE 12.7 mph - N/A   Clear
4:58 AM 48.2 °F - 21.0 °F 34% 30.15 in 10.0 mi SE 6.9 mph - N/A   Clear
5:58 AM 48.7 °F - 20.7 °F 33% 30.17 in 10.0 mi ESE 4.6 mph - N/A   Clear
6:58 AM 45.3 °F 40.6 °F 23.9 °F 43% 30.18 in 10.0 mi ESE 9.2 mph - N/A   Clear
7:58 AM 46.0 °F 42.5 °F 23.5 °F 41% 30.19 in 10.0 mi ESE 6.9 mph - N/A   Clear
8:58 AM 50.0 °F - 25.2 °F 38% 30.19 in 10.0 mi East 5.8 mph - N/A   Clear
9:58 AM 53.2 °F - 26.2 °F 35% 30.20 in 10.0 mi SE 9.2 mph - N/A   Clear
10:58 AM 57.2 °F - 22.6 °F 26% 30.18 in 10.0 mi ENE 6.9 mph - N/A   Clear
11:58 AM 60.6 °F - 21.7 °F 22% 30.14 in 10.0 mi NNE 4.6 mph - N/A   Clear
12:58 PM 62.4 °F - 21.4 °F 21% 30.11 in 10.0 mi ENE 8.1 mph - N/A   Clear
1:58 PM 63.7 °F - 22.5 °F 21% 30.07 in 10.0 mi NE 10.4 mph - N/A   Clear
2:58 PM 63.9 °F - 20.7 °F 19% 30.06 in 10.0 mi East 8.1 mph - N/A   Clear
3:58 PM 64.2 °F - 22.6 °F 20% 30.05 in 10.0 mi SE 8.1 mph - N/A   Clear
4:58 PM 61.7 °F - 22.6 °F 22% 30.07 in 10.0 mi East 5.8 mph - N/A   Clear
5:58 PM 57.0 °F - 22.5 °F 26% 30.08 in 10.0 mi ESE 9.2 mph - N/A   Clear
6:58 PM 55.0 °F - 21.9 °F 28% 30.11 in 10.0 mi ESE 8.1 mph - N/A   Clear
7:58 PM 50.9 °F - 24.1 °F 35% 30.12 in 10.0 mi NE 2.3 mph - N/A   Clear
8:58 PM 51.1 °F - 21.9 °F 32% 30.13 in 10.0 mi East 5.8 mph - N/A   Clear
9:58 PM 50.9 °F - 22.5 °F 33% 30.14 in 10.0 mi SSE 5.8 mph - N/A   Clear
10:58 PM 49.3 °F - 23.0 °F 36% 30.14 in 10.0 mi ESE 13.8 mph - N/A   Clear
11:58 PM 48.2 °F - 23.4 °F 38% 30.14 in 10.0 mi SE 12.7 mph - N/A   Clear